User: anonymous   Login
Location: Drayton Valley
(53.2170°N, 114.9830°W)
Time: 11:08:49
(UTC-06:00)
Language:

MOZ.5/SAFIR/RUBIN 5/SL-8 - Orbit

View from above orbital plane
View from above orbital plane
View from above satellite
View from above satellite

Ground track
Ground track

The orbit data is extracted from the following two-line orbital elements,

1 28898U 05043G   16177.43561937  .00000070  00000-0  23786-4 0  9994
2 28898  97.8805 337.7486 0018815 226.8626 133.1002 14.60106180567776
Epoch (UTC): 25 June 2016 10:27:17
Eccentricity: 0.0018815
inclination: 97.8805°
perigee height: 679 km
apogee height: 706 km
right ascension of ascending node: 337.7486°
argument of perigee: 226.8626°
revolutions per day: 14.60106180
mean anomaly at epoch: 133.1002°
orbit number at epoch: 56777

The dashed part of the orbit path shows where the satellite is in the earth's shadow,  

DLR